Regional Weather Roundup
Issued by NWS Grand Forks, ND

Home | Current Version | Previous Version | Text Only | Print | Product List | Glossary Off
Versions: 1 2 3 4 5 6 7 8 9 10 11 12 13 14 15 16 17 18 19 20 21 22 23 24 25 26 27 28 29 30 31 32 33 34 35 36 37 38 39 40 41 42 43 44 45 46 47 48 49 50

000
ASUS43 KFGF 220410
RWRFGF
PRAIRIE TO PINES  WEATHER ROUNDUP
NATIONAL WEATHER SERVICE EASTERN NORTH DAKOTA/GRAND FORKS ND
1100 PM CDT THU AUG 21 2014

 **SATELLITE DATA USED TO AUGMENT SKY COVER AT AUTOMATED STATIONS**
 *****  WEATHER ACROSS EASTERN NORTH DAKOTA  *****

CITY           SKY/WX    TMP DP  RH WIND       PRES   REMARKS
GRAND FORKS    MOCLDY    70  69  97 CALM      29.86S
GRAND FRKS AFB MOCLDY    68  68 100 NW3       29.88S
GRAND FRKS NWS   N/A     57 N/A N/A N1          N/A
DEVILS LAKE    PTCLDY    66  61  82 N7        29.91R
FARGO          CLEAR     68  66  93 CALM      29.87R
WAHPETON ARPT  CLEAR     70  66  88 CALM      29.87R
$$

 ***** WEATHER ACROSS CENTRAL AND WESTERN NORTH DAKOTA  *****

CITY           SKY/WX    TMP DP  RH WIND       PRES   REMARKS
BISMARCK       PTCLDY    68  63  84 NE3       29.95F
MINOT          PTCLDY    63  60  90 NW7       29.98S
JAMESTOWN      CLEAR     68  66  93 NW3       29.90S
MINOT AFB      PTCLDY    63  63  99 NW7       29.98S
GARRISON         N/A     66  63  90 NE7       29.98F
WILLISTON      CLOUDY    64  58  80 CALM      30.02R
DICKINSON      LGT RAIN  65  60  84 N6        30.01R
HETTINGER      CLOUDY    67  61  81 NE14      29.96F
$$

 *****  OTHER AIRPORT OBSERVATIONS IN OUR AREA  *****

CITY           SKY/WX    TMP DP  RH WIND       PRES   REMARKS
WALHALLA         N/A     68  68 100 N7        29.92R
GRAFTON AIRPOR FAIR      68  68 100 N7        29.88S
VALLEY CITY AR FAIR      66  66 100 NW6       29.90S
CANDO          FAIR      63  63 100 NW5       29.95R FOG
CAVALIER APRT  CLOUDY    68  66  94 N6        29.91R
GWINNER        CLEAR     70  70 100 W3        29.89S
ROLLA          CLOUDY    64  64 100 N14       29.98R
 ***** THE ABOVE OBSERVATIONS ARE NON NWS ARE NOT QUALITY
       CONTROLLED AND MAY MIS-REPORT RAIN FOR SNOW...
$$

  *****  WEATHER ACROSS NORTHERN MINNESOTA  *****

CITY           SKY/WX    TMP DP  RH WIND       PRES   REMARKS
FLAG ISLAND    CLOUDY    66  64  94 CALM      29.91S
WARROAD        CLOUDY    66  63  88 E5        29.91S
ROSEAU         PTCLDY    66  61  82 CALM      29.91R
HALLOCK        DRIZZLE   68  66  94 NE5       29.89R
THF RVR FALLS  CLOUDY    70  68  94 CALM      29.89S
BAUDETTE       CLOUDY    66  63  90 E5        29.91R
WASKISH        CLOUDY    66  64  94 CALM      29.91R
CROOKSTON      RAIN      72  70  94 CALM      29.88S
$$
  *****  WEATHER ACROSS CENTRAL AND WEST MINNESOTA  *****

CITY           SKY/WX    TMP DP  RH WIND       PRES   REMARKS
FOSSTON        MOCLDY    66  63  88 CALM      29.90S
BEMIDJI        CLOUDY    67  65  94 SE3       29.90S
PARK RAPIDS    CLOUDY    69  66  90 SE5       29.90S
ELBOW LAKE     FAIR      70  68  95 SE5       29.87S
WADENA         DRIZZLE   68  66  94 CALM      29.89S
DETROIT LAKES  MOCLDY    70  68  94 NE3       29.90F
MOORHEAD       CLEAR     70  70 100 CALM      29.88R
FERGUS FALLS   CLEAR     70  68  94 CALM      29.87R
MORRIS MN      CLEAR     70  68  94 CALM      29.87R FOG
STAPLES        CLOUDY    66  66 100 CALM      29.90R FOG
$$
  *****  WEATHER ELSEWHERE ACROSS MINNESOTA  *****

CITY           SKY/WX    TMP DP  RH WIND       PRES   REMARKS
DULUTH         DRIZZLE   63  60  90 E9        29.92S FOG
INTRNTL FALLS  CLOUDY    65  60  84 E9        29.92F
ELY            CLOUDY    63  57  82 CALM      29.95S
CLOQUET        CLOUDY    63  61  94 E7        29.91F
WHEATON        NOT AVBL
BRAINERD       CLOUDY    66  65  96 NE3       29.90R
HIBBING        CLOUDY    66  60  81 E5        29.93S
ALEXANDRIA     MOCLDY    69  67  93 E3        29.90S
SAINT CLOUD    CLOUDY    73  70  90 CALM      29.86S
MINNEAPOLIS    PTCLDY    76  73  91 NW6       29.83R
$$

  *****  WEATHER ACROSS SOUTH DAKOTA  *****

CITY           SKY/WX    TMP DP  RH WIND       PRES   REMARKS
SIOUX FALLS    PTCLDY    72  69  90 N6        29.90R
BROOKINGS      NOT AVBL
WATERTOWN      CLEAR     70  68  93 CALM      29.91R
HURON          PTCLDY    72  66  81 NE8       29.90R
SISSETON         N/A     68  68 100 CALM      29.87R
ABERDEEN       PTCLDY    66  64  93 NW5       29.90R
MITCHELL       PTCLDY    71  66  84 N3        29.91R
PIERRE         CLEAR     68  61  78 E7        29.91R
MOBRIDGE       PTCLDY    70  63  78 NE9       29.91F
RAPID CITY     PTCLDY    65  60  84 E3        29.99F
$$

  *****  SOME WEATHER IN NEARBY STATES *****

CITY           SKY/WX    TMP DP  RH WIND       PRES   REMARKS
GLASGOW MT     MOCLDY    61  59  93 NE9       30.05R
GREAT FALLS MT CLOUDY    55  49  80 NE17      30.14S
CHEYENNE WY    CLOUDY    65  45  48 NW13G21   30.21R
SCOTTSBLUFF NE PTCLDY    68  54  60 NW3       30.04R
OMAHA NE       TSTM      83  75  77 S9        29.87R HX  90
DES MOINES IA  MOCLDY    82  76  81 SE5       29.88R
DAVENPORT IA   PTCLDY    77  73  87 SE6       29.91R
CHICAGO IL     LGT RAIN  75  70  84 S3        29.95R
EAU CLAIRE WI  CLOUDY    75  72  90 NE6       29.86R
LA CROSSE WI   PTCLDY    77  71  82 SE8       29.87S
$$

  *****  SOME NATIONAL WEATHER *****

CITY           SKY/WX    TMP DP  RH WIND       PRES   REMARKS
LA GUARDIA NY  LGT RAIN  72  67  84 E7        30.04R
RALEIGH NC     MOCLDY    75  72  90 CALM      30.04S
ATLANTA GA     PTCLDY    77  71  82 W5        30.13S
NEW ORLEANS LA MOCLDY    79  74  84 SW3       30.12R
OKLAHOMA CITY  CLEAR     84  68  58 S14       29.95S
ALBUQUERQUE NM MOCLDY    78  40  25 SE5       30.12R
SALT LAKE CITY MOCLDY    71  49  45 S8        30.00S
LOS ANGELES CA PTCLDY    69  61  75 W10       29.95R
BOISE ID       PTCLDY    72  37  28 CALM      29.89S
SEATTLE WA     PTCLDY    65  52  62 N6        29.99R
$$

*** WEATHER ACROSS MANITOBA...SASKATCHEWAN AND ONTARIO ***
                ***ONTARIO***

CITY           SKY/WX    TMP DP  RH WIND       PRES   REMARKS
GERALDTON      CLOUDY    66  63  88 S2        30.02R
THUNDER BAY    DRIZZLE   61  59  94 E8        29.98F FOG
SIOUX LOOKOUT  MOCLDY    64  61  88 E3        29.96F
TORONTO        PTCLDY    66  63  88 N9        29.98F
BIG TROUT LK   CLOUDY    68  61  77 S6        29.95S
PICKLE LAKE    NOT AVBL
DRYDEN         CLOUDY    64  63  94 VRB2      29.96S
KENORA         CLOUDY    64  63  94 SE5       29.95R
$$
                *** MANITOBA***

CITY           SKY/WX    TMP DP  RH WIND       PRES   REMARKS
BRANDON        CLOUDY    63  59  88 N12       30.00S
DAUPHIN        CLOUDY    61  57  88 N7        30.02F
ISLAND LAKE    CLOUDY    68  66  94 CALM      29.93S
PILOT MOUND      N/A     64  63  94 N10G17      N/A
THE PAS        PTCLDY    61  54  77 N8        30.08R
THOMPSON       CLOUDY    54  54 100 N7        30.06
WINNIPEG       CLOUDY    68  68 100 SW6       29.92R
LYNN LAKE      CLEAR     50  48  93 MISG      30.13S
CHURCHILL      LGT RAIN  46  46 100 N18       30.04R
GILLAM         LGT RAIN  48  48 100 N13       30.02  VSB 3/4
$$
                ***SASKATCHEWAN***

CITY           SKY/WX    TMP DP  RH WIND       PRES   REMARKS
ESTEVAN        MOCLDY    57  57 100 N3        30.04R
KINDERSLEY     MOCLDY    54  50  87 N8        30.19R
LLOYDMINSTER   CLOUDY    52  45  76 N6        30.23S
PRINCE ALBERT  MOCLDY    54  50  87 N3        30.17R
REGINA         CLOUDY    61  54  77 NE7       30.09R
YORKTON        MOCLDY    59  54  82 N9        30.08S
N. BATTLEFORD  MOCLDY    52  46  82 NE5       30.22R
LA RONGE       PTCLDY    52  45  76 W6        30.18R
SASKATOON      CLOUDY    55  50  82 N6        30.19R
SWIFT CURRENT  LGT RAIN  55  54  94 N13G20    30.14S
$$
NOTE: THESE ARE AUTOMATED STATIONS WITH LIMITED QUALITY CONTROL
      "FAIR" INDICATES FEW OR NO CLOUDS BELOW 12,000 FEET WITH NO
      SIGNIFICANT WEATHER AND/OR OBSTRUCTIONS TO VISIBILITY.
      SKY/WX - SKY CONDITION AND SIGNIFICANT WEATHER.
      TMP - AIR TEMPERATURE.    DP   - DEWPOINT TEMPERATURE.
      RH  - RELATIVE HUMIDITY.  PRES - PRESSURE.
      HX  - HEAT INDEX.         WCI  - WIND CHILL INDEX.
$



USA.gov is the U.S. government's official web portal to all federal, state and local government web resources and services.